Hourly Data Report for September 07, 2017

All times are specified in Local Standard Time (LST). Add 1 hour to adjust for Daylight Saving Time where and when it is observed.

HALL BEACH A
NUNAVUT

68°46'33.000" N
81°14'33.000" W
9.10 m
2402354
71293
YUX

Download Data

Hourly Data (September 2017)
Hourly Data Report for September 7, 2017
Temp Definition
°C
Dew Point Temp Definition
°C
Rel Hum Definition
%
Wind Dir Definition
10's deg

Wind Spd Definition
km/h
Visibility Definition
km
Stn Press Definition
kPa
Hmdx Definition


Wind Chill Definition


Weather Definition


TIME
00:00 Legend Double Dagger -1.0 -4.7 76 34 17 16.1 101.59   -6 LegendNANA
01:00 Legend Double Dagger -1.1 -4.8 76 33 13 16.1 101.61   -5 LegendNANA
02:00 Legend Double Dagger -1.1 -4.6 77 32 13 16.1 101.61   -5 LegendNANA
03:00 Legend Double Dagger -1.2 -4.8 77 33 18 16.1 101.63   -6 LegendNANA
04:00 Legend Double Dagger -1.1 -4.6 77 32 5 16.1 101.61   -3 LegendNANA
05:00 Legend Double Dagger -1.2 -4.7 77   0 16.1 101.59     LegendNANA
06:00 Legend Double Dagger -1.0 -4.6 77 20 8 16.1 101.58   -4 LegendNANA
07:00 Legend Double Dagger -0.5 -4.5 74 19 13 16.1 101.55   -5 LegendNANA
08:00 Legend Double Dagger 0.3 -3.8 74 19 13 16.1 101.50     LegendNANA
09:00 Legend Double Dagger 0.7 -4.5 68 20 15 16.1 101.47     LegendNANA
10:00 Legend Double Dagger 1.0 -3.6 71 22 17 16.1 101.42     LegendNANA
11:00 Legend Double Dagger 1.2 -4.0 68 22 24 16.1 101.37     LegendNANA
12:00 Legend Double Dagger 1.4 -4.0 67 19 21 16.1 101.30     LegendNANA
13:00 Legend Double Dagger 1.8 -3.7 67 18 28 16.1 101.23     LegendNANA
14:00 Legend Double Dagger 2.0 -3.0 69 18 32 16.1 101.16     LegendNANA
15:00 Legend Double Dagger 1.9 -2.9 71 17 37 16.1 101.05     LegendNANA
16:00 Legend Double Dagger 2.3 -1.3 77 18 41 16.1 100.95     LegendNANA
17:00 Legend Double Dagger 2.3 -0.5 82 18 35 16.1 100.86     LegendNANA
18:00 Legend Double Dagger 1.7 -1.0 83 19 37 16.1 100.79     LegendNANA
19:00 Legend Double Dagger 1.3 -0.5 88 18 43 16.1 100.71     LegendNANA
20:00 Legend Double Dagger 1.5 -0.1 89 18 41 16.1 100.61     LegendNANA
21:00 Legend Double Dagger 1.3 0.1 92 19 43 16.1 100.50     Rain
22:00 Legend Double Dagger 1.5 0.5 93 19 41 16.1 100.38     Rain
23:00 Legend Double Dagger 1.7 0.5 92 19 35 16.1 100.29     LegendNANA

Notes on Data Quality.

Legend

  • E = Estimated
  • M = Missing
  • NA = Not Available
  • ‡ = Partner data that is not subject to review by the National Climate Archives
Date modified: